owner,sensor,date,latitude,longitude,vertical_datum,wind_speed,wind_to_direction,wind_speed_of_gust,qcFlag 
TCOON,ioos:station:TCOON:524:1,2011-07-01T00:00:00Z,29.8672,-93.9310,0.0,3.6,140.0,,'1111122,1111122,1111122' 
TCOON,ioos:station:TCOON:524:1,2011-07-01T00:06:00Z,29.8672,-93.9310,0.0,3.8,160.0,5.2,'11111222,11111222,11111222' 
TCOON,ioos:station:TCOON:524:1,2011-07-01T00:12:00Z,29.8672,-93.9310,0.0,3.6,154.0,5.0,'11111222,11111222,11111222' 
TCOON,ioos:station:TCOON:524:1,2011-07-01T00:18:00Z,29.8672,-93.9310,0.0,3.7,142.0,5.8,'11111222,11111222,11111222' 
TCOON,ioos:station:TCOON:524:1,2011-07-01T00:24:00Z,29.8672,-93.9310,0.0,3.9,161.0,5.5,'11111222,11111222,11111222' 
TCOON,ioos:station:TCOON:524:1,2011-07-01T00:30:00Z,29.8672,-93.9310,0.0,2.9,158.0,3.8,'11111222,11111222,11111222' 
TCOON,ioos:station:TCOON:524:1,2011-07-01T00:36:00Z,29.8672,-93.9310,0.0,3.2,164.0,4.4,'11111222,11111222,11111222' 
TCOON,ioos:station:TCOON:524:1,2011-07-01T00:42:00Z,29.8672,-93.9310,0.0,3.2,141.0,4.6,'11111222,11111222,11111222' 
TCOON,ioos:station:TCOON:524:1,2011-07-01T00:48:00Z,29.8672,-93.9310,0.0,3.0,150.0,4.2,'11111222,11111222,11111222' 
TCOON,ioos:station:TCOON:524:1,2011-07-01T00:54:00Z,29.8672,-93.9310,0.0,2.5,151.0,4.5,'11111222,11111222,11111222' 
TCOON,ioos:station:TCOON:524:1,2011-07-01T01:00:00Z,29.8672,-93.9310,0.0,3.1,160.0,,'1111122,1111122,1111122' 
TCOON,ioos:station:TCOON:524:1,2011-07-01T02:06:00Z,29.8672,-93.9310,0.0,1.9,158.0,2.6,'11111222,11111222,11111222' 
TCOON,ioos:station:TCOON:524:1,2011-07-01T02:12:00Z,29.8672,-93.9310,0.0,1.8,168.0,2.5,'11111222,11111222,11111222' 
TCOON,ioos:station:TCOON:524:1,2011-07-01T02:18:00Z,29.8672,-93.9310,0.0,1.6,163.0,2.3,'11111222,11111222,11111222' 
TCOON,ioos:station:TCOON:524:1,2011-07-01T02:24:00Z,29.8672,-93.9310,0.0,1.8,165.0,2.3,'11111222,11111222,11111222' 
TCOON,ioos:station:TCOON:524:1,2011-07-01T02:30:00Z,29.8672,-93.9310,0.0,1.6,158.0,2.2,'11111222,11111222,11111222' 
TCOON,ioos:station:TCOON:524:1,2011-07-01T02:36:00Z,29.8672,-93.9310,0.0,1.5,161.0,2.2,'11111222,11111222,11111222' 
TCOON,ioos:station:TCOON:524:1,2011-07-01T02:42:00Z,29.8672,-93.9310,0.0,1.8,161.0,2.5,'11111222,11111222,11111222' 
TCOON,ioos:station:TCOON:524:1,2011-07-01T02:48:00Z,29.8672,-93.9310,0.0,1.6,157.0,2.3,'11111222,11111222,11111222' 
TCOON,ioos:station:TCOON:524:1,2011-07-01T02:54:00Z,29.8672,-93.9310,0.0,1.8,158.0,2.6,'11111222,11111222,11111222' 
TCOON,ioos:station:TCOON:524:1,2011-07-01T03:00:00Z,29.8672,-93.9310,0.0,1.5,160.0,,'1111122,1111122,1111122' 
TCOON,ioos:station:TCOON:524:1,2011-07-01T03:06:00Z,29.8672,-93.9310,0.0,2.0,158.0,2.5,'11111222,11111222,11111222' 
TCOON,ioos:station:TCOON:524:1,2011-07-01T03:12:00Z,29.8672,-93.9310,0.0,1.7,154.0,2.2,'11111222,11111222,11111222' 
TCOON,ioos:station:TCOON:524:1,2011-07-01T03:18:00Z,29.8672,-93.9310,0.0,1.6,159.0,2.4,'11111222,11111222,11111222' 
TCOON,ioos:station:TCOON:524:1,2011-07-01T03:24:00Z,29.8672,-93.9310,0.0,1.6,167.0,2.0,'11111222,11111222,11111222' 
TCOON,ioos:station:TCOON:524:1,2011-07-01T03:30:00Z,29.8672,-93.9310,0.0,1.8,161.0,2.2,'11111222,11111222,11111222' 
TCOON,ioos:station:TCOON:524:1,2011-07-01T03:36:00Z,29.8672,-93.9310,0.0,1.7,162.0,2.3,'11111222,11111222,11111222' 
TCOON,ioos:station:TCOON:524:1,2011-07-01T03:42:00Z,29.8672,-93.9310,0.0,2.2,159.0,2.6,'11111222,11111222,11111222' 
TCOON,ioos:station:TCOON:524:1,2011-07-01T03:48:00Z,29.8672,-93.9310,0.0,1.8,161.0,2.8,'11111222,11111222,11111222' 
TCOON,ioos:station:TCOON:524:1,2011-07-01T03:54:00Z,29.8672,-93.9310,0.0,2.4,164.0,3.2,'11111222,11111222,11111222' 
TCOON,ioos:station:TCOON:524:1,2011-07-01T04:00:00Z,29.8672,-93.9310,0.0,1.5,160.0,,'1111122,1111122,1111122' 
TCOON,ioos:station:TCOON:524:1,2011-07-01T04:06:00Z,29.8672,-93.9310,0.0,1.8,163.0,2.5,'11111222,11111222,11111222' 
TCOON,ioos:station:TCOON:524:1,2011-07-01T04:12:00Z,29.8672,-93.9310,0.0,2.2,153.0,2.8,'11111222,11111222,11111222' 
TCOON,ioos:station:TCOON:524:1,2011-07-01T04:18:00Z,29.8672,-93.9310,0.0,1.6,151.0,2.4,'11111222,11111222,11111222' 
TCOON,ioos:station:TCOON:524:1,2011-07-01T04:24:00Z,29.8672,-93.9310,0.0,1.5,148.0,2.0,'11111222,11111222,11111222' 
TCOON,ioos:station:TCOON:524:1,2011-07-01T04:30:00Z,29.8672,-93.9310,0.0,1.6,154.0,1.9,'11111222,11111222,11111222' 
TCOON,ioos:station:TCOON:524:1,2011-07-01T04:36:00Z,29.8672,-93.9310,0.0,1.8,157.0,2.3,'11111222,11111222,11111222' 
TCOON,ioos:station:TCOON:524:1,2011-07-01T04:42:00Z,29.8672,-93.9310,0.0,1.7,159.0,2.4,'11111222,11111222,11111222' 
TCOON,ioos:station:TCOON:524:1,2011-07-01T04:48:00Z,29.8672,-93.9310,0.0,2.4,158.0,3.1,'11111222,11111222,11111222' 
TCOON,ioos:station:TCOON:524:1,2011-07-01T04:54:00Z,29.8672,-93.9310,0.0,2.5,152.0,3.4,'11111222,11111222,11111222' 
TCOON,ioos:station:TCOON:524:1,2011-07-01T05:00:00Z,29.8672,-93.9310,0.0,2.1,160.0,,'1111122,1111122,1111122' 
TCOON,ioos:station:TCOON:524:1,2011-07-01T05:06:00Z,29.8672,-93.9310,0.0,2.0,158.0,2.8,'11111222,11111222,11111222' 
TCOON,ioos:station:TCOON:524:1,2011-07-01T05:12:00Z,29.8672,-93.9310,0.0,2.1,158.0,2.9,'11111222,11111222,11111222' 
TCOON,ioos:station:TCOON:524:1,2011-07-01T05:18:00Z,29.8672,-93.9310,0.0,1.9,158.0,2.5,'11111222,11111222,11111222' 
TCOON,ioos:station:TCOON:524:1,2011-07-01T05:24:00Z,29.8672,-93.9310,0.0,2.1,166.0,2.8,'11111222,11111222,11111222' 
TCOON,ioos:station:TCOON:524:1,2011-07-01T05:30:00Z,29.8672,-93.9310,0.0,1.8,158.0,2.6,'11111222,11111222,11111222' 
TCOON,ioos:station:TCOON:524:1,2011-07-01T05:36:00Z,29.8672,-93.9310,0.0,1.8,157.0,2.4,'11111222,11111222,11111222' 
TCOON,ioos:station:TCOON:524:1,2011-07-01T05:42:00Z,29.8672,-93.9310,0.0,1.8,160.0,2.6,'11111222,11111222,11111222' 
TCOON,ioos:station:TCOON:524:1,2011-07-01T05:48:00Z,29.8672,-93.9310,0.0,1.4,155.0,2.2,'11111222,11111222,11111222' 
TCOON,ioos:station:TCOON:524:1,2011-07-01T05:54:00Z,29.8672,-93.9310,0.0,2.0,164.0,2.8,'11111222,11111222,11111222' 
TCOON,ioos:station:TCOON:524:1,2011-07-01T06:00:00Z,29.8672,-93.9310,0.0,2.1,160.0,,'1111122,1111122,1111122' 
TCOON,ioos:station:TCOON:524:1,2011-07-01T06:06:00Z,29.8672,-93.9310,0.0,2.1,168.0,2.5,'11111222,11111222,11111222' 
TCOON,ioos:station:TCOON:524:1,2011-07-01T06:12:00Z,29.8672,-93.9310,0.0,2.1,166.0,2.9,'11111222,11111222,11111222' 
TCOON,ioos:station:TCOON:524:1,2011-07-01T06:18:00Z,29.8672,-93.9310,0.0,1.7,160.0,2.3,'11111222,11111222,11111222' 
TCOON,ioos:station:TCOON:524:1,2011-07-01T06:24:00Z,29.8672,-93.9310,0.0,1.8,162.0,2.6,'11111222,11111222,11111222' 
TCOON,ioos:station:TCOON:524:1,2011-07-01T06:30:00Z,29.8672,-93.9310,0.0,1.7,159.0,2.6,'11111222,11111222,11111222' 
TCOON,ioos:station:TCOON:524:1,2011-07-01T06:36:00Z,29.8672,-93.9310,0.0,1.7,160.0,2.4,'11111222,11111222,11111222' 
TCOON,ioos:station:TCOON:524:1,2011-07-01T06:42:00Z,29.8672,-93.9310,0.0,1.8,160.0,2.2,'11111222,11111222,11111222' 
TCOON,ioos:station:TCOON:524:1,2011-07-01T06:48:00Z,29.8672,-93.9310,0.0,1.7,152.0,2.1,'11111222,11111222,11111222' 
TCOON,ioos:station:TCOON:524:1,2011-07-01T06:54:00Z,29.8672,-93.9310,0.0,1.9,158.0,2.6,'11111222,11111222,11111222' 
TCOON,ioos:station:TCOON:524:1,2011-07-01T07:00:00Z,29.8672,-93.9310,0.0,1.5,160.0,,'1111122,1111122,1111122' 
TCOON,ioos:station:TCOON:524:1,2011-07-01T07:06:00Z,29.8672,-93.9310,0.0,1.6,161.0,2.3,'11111222,11111222,11111222' 
TCOON,ioos:station:TCOON:524:1,2011-07-01T07:12:00Z,29.8672,-93.9310,0.0,1.3,156.0,1.8,'11111222,11111222,11111222' 
TCOON,ioos:station:TCOON:524:1,2011-07-01T07:18:00Z,29.8672,-93.9310,0.0,1.6,158.0,2.0,'11111222,11111222,11111222' 
TCOON,ioos:station:TCOON:524:1,2011-07-01T07:24:00Z,29.8672,-93.9310,0.0,1.8,158.0,2.4,'11111222,11111222,11111222' 
TCOON,ioos:station:TCOON:524:1,2011-07-01T07:30:00Z,29.8672,-93.9310,0.0,1.8,157.0,2.3,'11111222,11111222,11111222' 
TCOON,ioos:station:TCOON:524:1,2011-07-01T07:36:00Z,29.8672,-93.9310,0.0,2.0,162.0,2.8,'11111222,11111222,11111222' 
TCOON,ioos:station:TCOON:524:1,2011-07-01T07:42:00Z,29.8672,-93.9310,0.0,2.3,165.0,2.6,'11111222,11111222,11111222' 
TCOON,ioos:station:TCOON:524:1,2011-07-01T07:48:00Z,29.8672,-93.9310,0.0,2.0,161.0,2.7,'11111222,11111222,11111222' 
TCOON,ioos:station:TCOON:524:1,2011-07-01T07:54:00Z,29.8672,-93.9310,0.0,1.6,158.0,2.4,'11111222,11111222,11111222' 
TCOON,ioos:station:TCOON:524:1,2011-07-01T08:00:00Z,29.8672,-93.9310,0.0,2.1,160.0,,'1111122,1111122,1111122' 
TCOON,ioos:station:TCOON:524:1,2011-07-01T08:06:00Z,29.8672,-93.9310,0.0,1.7,160.0,2.4,'11111222,11111222,11111222' 
TCOON,ioos:station:TCOON:524:1,2011-07-01T08:12:00Z,29.8672,-93.9310,0.0,1.8,157.0,2.2,'11111222,11111222,11111222' 
TCOON,ioos:station:TCOON:524:1,2011-07-01T08:18:00Z,29.8672,-93.9310,0.0,1.7,152.0,2.1,'11111222,11111222,11111222' 
TCOON,ioos:station:TCOON:524:1,2011-07-01T08:24:00Z,29.8672,-93.9310,0.0,1.4,161.0,1.9,'11111222,11111222,11111222' 
TCOON,ioos:station:TCOON:524:1,2011-07-01T08:30:00Z,29.8672,-93.9310,0.0,1.6,161.0,2.3,'11111222,11111222,11111222' 
TCOON,ioos:station:TCOON:524:1,2011-07-01T08:36:00Z,29.8672,-93.9310,0.0,1.5,165.0,2.1,'11111222,11111222,11111222' 
TCOON,ioos:station:TCOON:524:1,2011-07-01T08:42:00Z,29.8672,-93.9310,0.0,1.3,162.0,1.9,'11111222,11111222,11111222' 
TCOON,ioos:station:TCOON:524:1,2011-07-01T08:48:00Z,29.8672,-93.9310,0.0,1.9,163.0,2.6,'11111222,11111222,11111222' 
TCOON,ioos:station:TCOON:524:1,2011-07-01T08:54:00Z,29.8672,-93.9310,0.0,2.0,163.0,2.7,'11111222,11111222,11111222' 
TCOON,ioos:station:TCOON:524:1,2011-07-01T09:00:00Z,29.8672,-93.9310,0.0,1.5,170.0,,'1111122,1111122,1111122' 
TCOON,ioos:station:TCOON:524:1,2011-07-01T09:06:00Z,29.8672,-93.9310,0.0,2.3,167.0,3.2,'11111222,11111222,11111222' 
TCOON,ioos:station:TCOON:524:1,2011-07-01T09:12:00Z,29.8672,-93.9310,0.0,2.2,168.0,3.0,'11111222,11111222,11111222' 
TCOON,ioos:station:TCOON:524:1,2011-07-01T09:18:00Z,29.8672,-93.9310,0.0,2.2,163.0,3.0,'11111222,11111222,11111222' 
TCOON,ioos:station:TCOON:524:1,2011-07-01T09:24:00Z,29.8672,-93.9310,0.0,1.9,165.0,2.7,'11111222,11111222,11111222' 
TCOON,ioos:station:TCOON:524:1,2011-07-01T09:30:00Z,29.8672,-93.9310,0.0,2.4,169.0,3.1,'11111222,11111222,11111222' 
TCOON,ioos:station:TCOON:524:1,2011-07-01T09:36:00Z,29.8672,-93.9310,0.0,2.2,171.0,2.8,'11111222,11111222,11111222' 
TCOON,ioos:station:TCOON:524:1,2011-07-01T09:42:00Z,29.8672,-93.9310,0.0,2.4,171.0,3.2,'11111222,11111222,11111222' 
TCOON,ioos:station:TCOON:524:1,2011-07-01T09:48:00Z,29.8672,-93.9310,0.0,2.1,179.0,2.8,'11111222,11111222,11111222' 
TCOON,ioos:station:TCOON:524:1,2011-07-01T09:54:00Z,29.8672,-93.9310,0.0,1.9,169.0,2.8,'11111222,11111222,11111222' 
TCOON,ioos:station:TCOON:524:1,2011-07-01T10:00:00Z,29.8672,-93.9310,0.0,2.1,170.0,,'1111122,1111122,1111122' 
TCOON,ioos:station:TCOON:524:1,2011-07-01T10:06:00Z,29.8672,-93.9310,0.0,1.1,215.0,1.5,'11111222,11111222,11111222' 
TCOON,ioos:station:TCOON:524:1,2011-07-01T10:12:00Z,29.8672,-93.9310,0.0,1.6,223.0,2.1,'11111222,11111222,11111222' 
TCOON,ioos:station:TCOON:524:1,2011-07-01T10:18:00Z,29.8672,-93.9310,0.0,1.9,217.0,2.5,'11111222,11111222,11111222' 
TCOON,ioos:station:TCOON:524:1,2011-07-01T10:24:00Z,29.8672,-93.9310,0.0,1.7,199.0,2.5,'11111222,11111222,11111222' 
TCOON,ioos:station:TCOON:524:1,2011-07-01T10:30:00Z,29.8672,-93.9310,0.0,1.2,209.0,2.0,'11111222,11111222,11111222' 
TCOON,ioos:station:TCOON:524:1,2011-07-01T10:36:00Z,29.8672,-93.9310,0.0,0.9,211.0,1.5,'11111222,11111222,11111222' 
TCOON,ioos:station:TCOON:524:1,2011-07-01T10:42:00Z,29.8672,-93.9310,0.0,0.8,200.0,1.2,'11111222,11111222,11111222' 
TCOON,ioos:station:TCOON:524:1,2011-07-01T10:48:00Z,29.8672,-93.9310,0.0,1.4,207.0,1.7,'11111222,11111222,11111222' 
TCOON,ioos:station:TCOON:524:1,2011-07-01T10:54:00Z,29.8672,-93.9310,0.0,1.4,207.0,2.0,'11111222,11111222,11111222' 
TCOON,ioos:station:TCOON:524:1,2011-07-01T11:00:00Z,29.8672,-93.9310,0.0,1.0,210.0,,'1111122,1111122,1111122' 
TCOON,ioos:station:TCOON:524:1,2011-07-01T11:06:00Z,29.8672,-93.9310,0.0,2.2,201.0,2.7,'11111222,11111222,11111222' 
TCOON,ioos:station:TCOON:524:1,2011-07-01T11:12:00Z,29.8672,-93.9310,0.0,1.2,192.0,2.0,'11111222,11111222,11111222' 
TCOON,ioos:station:TCOON:524:1,2011-07-01T11:18:00Z,29.8672,-93.9310,0.0,1.3,173.0,1.9,'11111222,11111222,11111222' 
TCOON,ioos:station:TCOON:524:1,2011-07-01T11:24:00Z,29.8672,-93.9310,0.0,1.5,191.0,2.0,'11111222,11111222,11111222' 
TCOON,ioos:station:TCOON:524:1,2011-07-01T11:30:00Z,29.8672,-93.9310,0.0,1.5,189.0,2.1,'11111222,11111222,11111222' 
TCOON,ioos:station:TCOON:524:1,2011-07-01T11:36:00Z,29.8672,-93.9310,0.0,1.5,199.0,2.0,'11111222,11111222,11111222' 
TCOON,ioos:station:TCOON:524:1,2011-07-01T11:42:00Z,29.8672,-93.9310,0.0,1.1,166.0,1.5,'11111222,11111222,11111222' 
TCOON,ioos:station:TCOON:524:1,2011-07-01T11:48:00Z,29.8672,-93.9310,0.0,0.8,198.0,1.2,'11111222,11111222,11111222' 
TCOON,ioos:station:TCOON:524:1,2011-07-01T11:54:00Z,29.8672,-93.9310,0.0,1.1,244.0,1.3,'11111222,11111222,11111222' 
TCOON,ioos:station:TCOON:524:1,2011-07-01T12:00:00Z,29.8672,-93.9310,0.0,1.5,200.0,,'1111122,1111122,1111122' 
TCOON,ioos:station:TCOON:524:1,2011-07-01T12:06:00Z,29.8672,-93.9310,0.0,1.2,224.0,1.5,'11111222,11111222,11111222' 
TCOON,ioos:station:TCOON:524:1,2011-07-01T12:12:00Z,29.8672,-93.9310,0.0,1.0,224.0,1.2,'11111222,11111222,11111222' 
TCOON,ioos:station:TCOON:524:1,2011-07-01T12:18:00Z,29.8672,-93.9310,0.0,0.4,145.0,0.6,'11111222,11111222,11111222' 
TCOON,ioos:station:TCOON:524:1,2011-07-01T12:24:00Z,29.8672,-93.9310,0.0,1.1,258.0,1.2,'11111222,11111222,11111222' 
TCOON,ioos:station:TCOON:524:1,2011-07-01T12:30:00Z,29.8672,-93.9310,0.0,0.8,240.0,1.0,'11111222,11111222,11111222' 
TCOON,ioos:station:TCOON:524:1,2011-07-01T12:36:00Z,29.8672,-93.9310,0.0,0.8,227.0,1.2,'11111222,11111222,11111222' 
TCOON,ioos:station:TCOON:524:1,2011-07-01T12:42:00Z,29.8672,-93.9310,0.0,0.8,145.0,1.1,'11111222,11111222,11111222' 
TCOON,ioos:station:TCOON:524:1,2011-07-01T12:48:00Z,29.8672,-93.9310,0.0,1.2,198.0,1.4,'11111222,11111222,11111222' 
TCOON,ioos:station:TCOON:524:1,2011-07-01T12:54:00Z,29.8672,-93.9310,0.0,1.2,259.0,1.6,'11111222,11111222,11111222' 
TCOON,ioos:station:TCOON:524:1,2011-07-01T13:00:00Z,29.8672,-93.9310,0.0,1.0,230.0,,'1111122,1111122,1111122' 
TCOON,ioos:station:TCOON:524:1,2011-07-01T13:06:00Z,29.8672,-93.9310,0.0,0.8,272.0,1.1,'11111222,11111222,11111222' 
TCOON,ioos:station:TCOON:524:1,2011-07-01T13:12:00Z,29.8672,-93.9310,0.0,0.8,272.0,1.3,'11111222,11111222,11111222' 
TCOON,ioos:station:TCOON:524:1,2011-07-01T13:18:00Z,29.8672,-93.9310,0.0,0.9,16.0,1.6,'11111222,11111222,11111222' 
TCOON,ioos:station:TCOON:524:1,2011-07-01T13:24:00Z,29.8672,-93.9310,0.0,1.0,341.0,1.4,'11111222,11111222,11111222' 
TCOON,ioos:station:TCOON:524:1,2011-07-01T13:30:00Z,29.8672,-93.9310,0.0,1.4,338.0,1.9,'11111222,11111222,11111222' 
TCOON,ioos:station:TCOON:524:1,2011-07-01T13:36:00Z,29.8672,-93.9310,0.0,0.5,276.0,1.0,'11111222,11111222,11111222' 
TCOON,ioos:station:TCOON:524:1,2011-07-01T13:42:00Z,29.8672,-93.9310,0.0,0.7,16.0,1.1,'11111222,11111222,11111222' 
TCOON,ioos:station:TCOON:524:1,2011-07-01T13:48:00Z,29.8672,-93.9310,0.0,1.0,340.0,1.8,'11111222,11111222,11111222' 
TCOON,ioos:station:TCOON:524:1,2011-07-01T13:54:00Z,29.8672,-93.9310,0.0,0.9,26.0,1.5,'11111222,11111222,11111222' 
TCOON,ioos:station:TCOON:524:1,2011-07-01T14:00:00Z,29.8672,-93.9310,0.0,0.5,280.0,,'1111122,1111122,1111122' 
TCOON,ioos:station:TCOON:524:1,2011-07-01T14:06:00Z,29.8672,-93.9310,0.0,1.5,58.0,2.2,'11111222,11111222,11111222' 
TCOON,ioos:station:TCOON:524:1,2011-07-01T14:12:00Z,29.8672,-93.9310,0.0,1.5,67.0,2.1,'11111222,11111222,11111222' 
TCOON,ioos:station:TCOON:524:1,2011-07-01T14:18:00Z,29.8672,-93.9310,0.0,2.0,65.0,2.7,'11111222,11111222,11111222' 
TCOON,ioos:station:TCOON:524:1,2011-07-01T14:24:00Z,29.8672,-93.9310,0.0,2.0,54.0,2.9,'11111222,11111222,11111222' 
TCOON,ioos:station:TCOON:524:1,2011-07-01T14:30:00Z,29.8672,-93.9310,0.0,2.2,87.0,2.8,'11111222,11111222,11111222' 
TCOON,ioos:station:TCOON:524:1,2011-07-01T14:36:00Z,29.8672,-93.9310,0.0,2.1,95.0,3.6,'11111222,11111222,11111222' 
TCOON,ioos:station:TCOON:524:1,2011-07-01T14:42:00Z,29.8672,-93.9310,0.0,1.4,85.0,2.0,'11111222,11111222,11111222' 
TCOON,ioos:station:TCOON:524:1,2011-07-01T14:48:00Z,29.8672,-93.9310,0.0,2.4,64.0,3.2,'11111222,11111222,11111222' 
TCOON,ioos:station:TCOON:524:1,2011-07-01T14:54:00Z,29.8672,-93.9310,0.0,1.7,100.0,3.0,'11111222,11111222,11111222' 
TCOON,ioos:station:TCOON:524:1,2011-07-01T15:00:00Z,29.8672,-93.9310,0.0,2.1,100.0,,'1111122,1111122,1111122' 
TCOON,ioos:station:TCOON:524:1,2011-07-01T15:06:00Z,29.8672,-93.9310,0.0,2.0,71.0,3.8,'11111222,11111222,11111222' 
TCOON,ioos:station:TCOON:524:1,2011-07-01T15:12:00Z,29.8672,-93.9310,0.0,2.8,79.0,3.7,'11111222,11111222,11111222' 
TCOON,ioos:station:TCOON:524:1,2011-07-01T15:18:00Z,29.8672,-93.9310,0.0,1.5,100.0,2.3,'11111222,11111222,11111222' 
TCOON,ioos:station:TCOON:524:1,2011-07-01T15:24:00Z,29.8672,-93.9310,0.0,2.0,63.0,3.0,'11111222,11111222,11111222' 
TCOON,ioos:station:TCOON:524:1,2011-07-01T15:30:00Z,29.8672,-93.9310,0.0,2.4,77.0,3.3,'11111222,11111222,11111222' 
TCOON,ioos:station:TCOON:524:1,2011-07-01T15:36:00Z,29.8672,-93.9310,0.0,2.4,67.0,3.0,'11111222,11111222,11111222' 
TCOON,ioos:station:TCOON:524:1,2011-07-01T15:42:00Z,29.8672,-93.9310,0.0,2.3,46.0,3.0,'11111222,11111222,11111222' 
TCOON,ioos:station:TCOON:524:1,2011-07-01T15:48:00Z,29.8672,-93.9310,0.0,2.0,63.0,2.5,'11111222,11111222,11111222' 
TCOON,ioos:station:TCOON:524:1,2011-07-01T15:54:00Z,29.8672,-93.9310,0.0,2.2,77.0,3.3,'11111222,11111222,11111222' 
TCOON,ioos:station:TCOON:524:1,2011-07-01T16:00:00Z,29.8672,-93.9310,0.0,2.6,70.0,,'1111122,1111122,1111122' 
TCOON,ioos:station:TCOON:524:1,2011-07-01T16:06:00Z,29.8672,-93.9310,0.0,2.7,53.0,3.7,'11111222,11111222,11111222' 
TCOON,ioos:station:TCOON:524:1,2011-07-01T16:12:00Z,29.8672,-93.9310,0.0,3.2,61.0,3.9,'11111222,11111222,11111222' 
TCOON,ioos:station:TCOON:524:1,2011-07-01T16:18:00Z,29.8672,-93.9310,0.0,2.5,60.0,3.3,'11111222,11111222,11111222' 
TCOON,ioos:station:TCOON:524:1,2011-07-01T16:24:00Z,29.8672,-93.9310,0.0,2.6,73.0,3.2,'11111222,11111222,11111222' 
TCOON,ioos:station:TCOON:524:1,2011-07-01T16:30:00Z,29.8672,-93.9310,0.0,3.0,64.0,3.8,'11111222,11111222,11111222' 
TCOON,ioos:station:TCOON:524:1,2011-07-01T16:36:00Z,29.8672,-93.9310,0.0,3.0,52.0,4.2,'11111222,11111222,11111222' 
TCOON,ioos:station:TCOON:524:1,2011-07-01T16:42:00Z,29.8672,-93.9310,0.0,2.4,53.0,3.1,'11111222,11111222,11111222' 
TCOON,ioos:station:TCOON:524:1,2011-07-01T16:48:00Z,29.8672,-93.9310,0.0,2.9,73.0,3.8,'11111222,11111222,11111222' 
TCOON,ioos:station:TCOON:524:1,2011-07-01T16:54:00Z,29.8672,-93.9310,0.0,2.6,45.0,3.4,'11111222,11111222,11111222' 
TCOON,ioos:station:TCOON:524:1,2011-07-01T17:00:00Z,29.8672,-93.9310,0.0,3.1,50.0,,'1111122,1111122,1111122' 
TCOON,ioos:station:TCOON:524:1,2011-07-01T17:06:00Z,29.8672,-93.9310,0.0,3.6,58.0,4.1,'11111222,11111222,11111222' 
TCOON,ioos:station:TCOON:524:1,2011-07-01T17:12:00Z,29.8672,-93.9310,0.0,2.5,74.0,3.4,'11111222,11111222,11111222' 
TCOON,ioos:station:TCOON:524:1,2011-07-01T17:18:00Z,29.8672,-93.9310,0.0,2.9,64.0,3.7,'11111222,11111222,11111222' 
TCOON,ioos:station:TCOON:524:1,2011-07-01T17:24:00Z,29.8672,-93.9310,0.0,2.9,72.0,4.0,'11111222,11111222,11111222' 
TCOON,ioos:station:TCOON:524:1,2011-07-01T17:30:00Z,29.8672,-93.9310,0.0,3.1,69.0,4.0,'11111222,11111222,11111222' 
TCOON,ioos:station:TCOON:524:1,2011-07-01T17:36:00Z,29.8672,-93.9310,0.0,3.0,69.0,3.8,'11111222,11111222,11111222' 
TCOON,ioos:station:TCOON:524:1,2011-07-01T17:42:00Z,29.8672,-93.9310,0.0,2.8,74.0,3.8,'11111222,11111222,11111222' 
TCOON,ioos:station:TCOON:524:1,2011-07-01T17:48:00Z,29.8672,-93.9310,0.0,3.2,66.0,3.8,'11111222,11111222,11111222' 
TCOON,ioos:station:TCOON:524:1,2011-07-01T17:54:00Z,29.8672,-93.9310,0.0,2.9,75.0,3.9,'11111222,11111222,11111222' 
TCOON,ioos:station:TCOON:524:1,2011-07-01T18:00:00Z,29.8672,-93.9310,0.0,3.1,70.0,,'1111122,1111122,1111122' 
TCOON,ioos:station:TCOON:524:1,2011-07-01T18:06:00Z,29.8672,-93.9310,0.0,2.7,75.0,3.9,'11111222,11111222,11111222' 
TCOON,ioos:station:TCOON:524:1,2011-07-01T18:12:00Z,29.8672,-93.9310,0.0,2.9,77.0,4.4,'11111222,11111222,11111222' 
TCOON,ioos:station:TCOON:524:1,2011-07-01T18:18:00Z,29.8672,-93.9310,0.0,2.4,67.0,3.3,'11111222,11111222,11111222' 
TCOON,ioos:station:TCOON:524:1,2011-07-01T18:24:00Z,29.8672,-93.9310,0.0,2.7,98.0,4.0,'11111222,11111222,11111222' 
TCOON,ioos:station:TCOON:524:1,2011-07-01T18:30:00Z,29.8672,-93.9310,0.0,2.7,61.0,3.6,'11111222,11111222,11111222' 
TCOON,ioos:station:TCOON:524:1,2011-07-01T18:36:00Z,29.8672,-93.9310,0.0,3.0,82.0,4.5,'11111222,11111222,11111222' 
TCOON,ioos:station:TCOON:524:1,2011-07-01T18:42:00Z,29.8672,-93.9310,0.0,2.6,100.0,3.9,'11111222,11111222,11111222' 
TCOON,ioos:station:TCOON:524:1,2011-07-01T18:48:00Z,29.8672,-93.9310,0.0,2.3,86.0,3.9,'11111222,11111222,11111222' 
TCOON,ioos:station:TCOON:524:1,2011-07-01T18:54:00Z,29.8672,-93.9310,0.0,3.1,91.0,4.6,'11111222,11111222,11111222' 
TCOON,ioos:station:TCOON:524:1,2011-07-01T19:00:00Z,29.8672,-93.9310,0.0,3.1,80.0,,'1111122,1111122,1111122' 
TCOON,ioos:station:TCOON:524:1,2011-07-01T19:06:00Z,29.8672,-93.9310,0.0,3.5,105.0,5.0,'11111222,11111222,11111222' 
TCOON,ioos:station:TCOON:524:1,2011-07-01T19:12:00Z,29.8672,-93.9310,0.0,3.5,101.0,4.9,'11111222,11111222,11111222' 
TCOON,ioos:station:TCOON:524:1,2011-07-01T19:18:00Z,29.8672,-93.9310,0.0,3.9,116.0,5.6,'11111222,11111222,11111222' 
TCOON,ioos:station:TCOON:524:1,2011-07-01T19:24:00Z,29.8672,-93.9310,0.0,4.8,109.0,7.2,'11111222,11111222,11111222' 
TCOON,ioos:station:TCOON:524:1,2011-07-01T19:30:00Z,29.8672,-93.9310,0.0,4.0,134.0,6.6,'11111222,11111222,11111222' 
TCOON,ioos:station:TCOON:524:1,2011-07-01T19:36:00Z,29.8672,-93.9310,0.0,4.2,118.0,6.0,'11111222,11111222,11111222' 
TCOON,ioos:station:TCOON:524:1,2011-07-01T19:42:00Z,29.8672,-93.9310,0.0,3.9,123.0,6.6,'11111222,11111222,11111222' 
TCOON,ioos:station:TCOON:524:1,2011-07-01T19:48:00Z,29.8672,-93.9310,0.0,4.3,139.0,6.4,'11111222,11111222,11111222' 
TCOON,ioos:station:TCOON:524:1,2011-07-01T19:54:00Z,29.8672,-93.9310,0.0,4.3,112.0,5.5,'11111222,11111222,11111222' 
TCOON,ioos:station:TCOON:524:1,2011-07-01T20:00:00Z,29.8672,-93.9310,0.0,4.1,120.0,,'1111122,1111122,1111122' 
TCOON,ioos:station:TCOON:524:1,2011-07-01T20:06:00Z,29.8672,-93.9310,0.0,4.9,121.0,6.8,'11111222,11111222,11111222' 
TCOON,ioos:station:TCOON:524:1,2011-07-01T20:12:00Z,29.8672,-93.9310,0.0,4.4,118.0,5.7,'11111222,11111222,11111222' 
TCOON,ioos:station:TCOON:524:1,2011-07-01T20:18:00Z,29.8672,-93.9310,0.0,4.1,121.0,6.2,'11111222,11111222,11111222' 
TCOON,ioos:station:TCOON:524:1,2011-07-01T20:24:00Z,29.8672,-93.9310,0.0,4.3,126.0,6.8,'11111222,11111222,11111222' 
TCOON,ioos:station:TCOON:524:1,2011-07-01T20:30:00Z,29.8672,-93.9310,0.0,4.7,123.0,6.1,'11111222,11111222,11111222' 
TCOON,ioos:station:TCOON:524:1,2011-07-01T20:36:00Z,29.8672,-93.9310,0.0,4.7,118.0,6.5,'11111222,11111222,11111222' 
TCOON,ioos:station:TCOON:524:1,2011-07-01T20:42:00Z,29.8672,-93.9310,0.0,5.1,121.0,6.5,'11111222,11111222,11111222' 
TCOON,ioos:station:TCOON:524:1,2011-07-01T20:48:00Z,29.8672,-93.9310,0.0,4.8,105.0,6.5,'11111222,11111222,11111222' 
TCOON,ioos:station:TCOON:524:1,2011-07-01T20:54:00Z,29.8672,-93.9310,0.0,4.5,120.0,6.3,'11111222,11111222,11111222' 
TCOON,ioos:station:TCOON:524:1,2011-07-01T21:00:00Z,29.8672,-93.9310,0.0,4.6,120.0,,'1111122,1111122,1111122' 
TCOON,ioos:station:TCOON:524:1,2011-07-01T21:06:00Z,29.8672,-93.9310,0.0,4.1,124.0,6.2,'11111222,11111222,11111222' 
TCOON,ioos:station:TCOON:524:1,2011-07-01T21:12:00Z,29.8672,-93.9310,0.0,3.9,140.0,6.3,'11111222,11111222,11111222' 
TCOON,ioos:station:TCOON:524:1,2011-07-01T21:18:00Z,29.8672,-93.9310,0.0,3.4,145.0,4.8,'11111222,11111222,11111222' 
TCOON,ioos:station:TCOON:524:1,2011-07-01T21:24:00Z,29.8672,-93.9310,0.0,4.0,155.0,6.1,'11111222,11111222,11111222' 